Regional Weather Roundup
Issued by NWS

Home | Current Version | Previous Version | Graphics & Text | Print | Product List | Glossary On
Versions: 1 2 3 4 5 6 7 8 9 10 11 12 13 14 15 16 17 18 19 20 21 22 23 24 25 26 27 28 29 30 31 32 33 34 35 36 37 38 39 40 41 42 43 44 45 46 47 48 49 50
000
ASUS43 KLOT 212000
RWRIL

ILLINOIS REGIONAL WEATHER ROUNDUP
NATIONAL WEATHER SERVICE CHICAGO/ROMEOVILLE IL
300 PM CDT TUE OCT 21 2014

NOTE: "FAIR" INDICATES FEW OR NO CLOUDS BELOW 12,000 FEET WITH NO
SIGNIFICANT WEATHER AND/OR OBSTRUCTIONS TO VISIBILITY.

* THESE STATIONS ARE NOT UNDER NWS QUALITY CONTROL. THEY ALSO MAY NOT
  REPORT WEATHER SUCH AS PRECIPITATION OR FOG.

ILZ001-002-007-009-015-016-024-212100-
NORTHWEST ILLINOIS

CITY           SKY/WX    TMP DP  RH WIND       PRES   REMARKS
MOLINE         SUNNY     59  38  45 E12       30.17S
STERLING*      MOSUNNY   57  41  54 NE10      30.18S
$$

ILZ003-004-008-010-011-017-018-212100-
NORTH CENTRAL ILLINOIS

CITY           SKY/WX    TMP DP  RH WIND       PRES   REMARKS
ROCKFORD       CLOUDY    53  38  56 N12       30.22S
$$

ILZ005-006-012>014-019>023-212100-
NORTHEAST ILLINOIS

CITY           SKY/WX    TMP DP  RH WIND       PRES   REMARKS
CHICAGO-OHARE  CLOUDY    50  40  68 N15       30.19R
CHICAGO-MIDWAY CLOUDY    51  42  71 N15       30.18R
AURORA         CLOUDY    53  38  56 NE10      30.18S
WAUKEGAN       CLOUDY    48  39  71 N9        30.19S
DUPAGE AIRPORT CLOUDY    51  39  63 NE14      30.18S
WHEELING       CLOUDY    50  40  68 N10       30.20S
NORTHERLY ISL    N/A     50  42  74 NW15        N/A
$$

LMZ740>746-212100-
SOUTHERN LAKE MICHIGAN

STATION/POSITION SKY/WX   TEMP    WIND        PRES    VSBY  WAVE
                          AIR SEA DIR/SP/G                  HT/PER
                          (F)     (DEG/KT/KT) (MB)    (MI)  (FT/S)
SOUTHERN BUOY              50 54  360/ 17/ 21 1021.5S         6/ 7
WAUKEGAN HARBOR            48     360/ 14/ 20   N/A
HARRISON CRIB              49     340/ 22/ 27   N/A
BURNHAM HARBOR             50     350/ 16/ 19   N/A
CALUMET HARBOR                    340/ 11/ 20 1020.5R
MICHIGAN CITY              51     350/ 23/ 25   N/A
$$

ILZ025>027-034>036-040-047-049-050-058-095>099-212100-
WEST-CENTRAL ILLINOIS

CITY           SKY/WX    TMP DP  RH WIND       PRES   REMARKS
QUINCY         SUNNY     63  42  46 NE6       30.12F
$$

ILZ028>032-037-038-041>044-048-051>054-059>061-212100-
CENTRAL ILLINOIS

CITY           SKY/WX    TMP DP  RH WIND       PRES   REMARKS
DECATUR        SUNNY     61  41  47 N10G16    30.14S
PEORIA         SUNNY     60  37  42 NE9       30.16R
SPRINGFIELD    SUNNY     62  40  44 N10       30.14S
TAYLORVILLE    NOT AVBL
$$

ILZ033-039-045-046-055>057-062-063-212100-
EAST-CENTRAL ILLINOIS

CITY           SKY/WX    TMP DP  RH WIND       PRES   REMARKS
CHAMPAIGN      SUNNY     60  38  43 NE8       30.13S
MATTOON        MOSUNNY   59  39  47 N13G22    30.11F
$$

ILZ079-100>102-212100-
SOUTHWEST ILLINOIS

CITY           SKY/WX    TMP DP  RH WIND       PRES   REMARKS
BELLEVILLE     SUNNY     67  47  47 N5        30.10S
CAHOKIA*       SUNNY     68  46  45 N10       30.11F
$$

ILZ064>066-069>071-074>076-080>082-084>086-088>090-092>094-212100-
SOUTH-CENTRAL ILLINOIS

CITY           SKY/WX    TMP DP  RH WIND       PRES   REMARKS
CARBONDALE     SUNNY     69  43  38 NW8       30.09F
MARION         SUNNY     68  46  45 N12       30.09F
MT. VERNON     SUNNY     64  45  48 N9        30.11R
$$

ILZ067-068-072-073-078-083-087-091-212100-
SOUTHEAST ILLINOIS

CITY           SKY/WX    TMP DP  RH WIND       PRES   REMARKS
LAWRENCEVILLE  PTSUNNY   64  42  44 N16       30.10S
$$

ABBREVIATIONS USED IN REMARKS
   TC - TEMPERATURE IN CELSIUS
  WCI - WIND CHILL INDEX
   HX - HEAT INDEX
  VSB - VISIBILITY
$$




USA.gov is the U.S. government's official web portal to all federal, state and local government web resources and services.